OPS 4682 DEB, 38388

Orbit data source: Space-Track

OPS 4682 DEB, 38388 is space debris in LEO originally from a launch on Sat, 03 Apr 1965 UTC launched from the Air Force Western Test Range (AFWTR). Debris objects in space refer to the collection of defunct objects orbiting the Earth. Examples of debris include non-operational satellites, rocket bodies, and fragments generated from explosions, collisions, or faulty payload assembly.

Loading next visibility...
Identifier
38388, 1965-027CR
Orbit
LEO
Country
Flag of USUS
Related business
Manufacturer
Unknown
Mission
Spacecraft
Bus & Motor
Unknown
Mass
Unknown
Launch date (UTC)
1965-04-03 (61 years ago)
Launch vehicle
Unknown
Launch site
Air Force Western Test Range (AFWTR)
Object type
Payload
Rocket body
Debris
Shape & HBR
Unknown shape, 0.1 m
Radar Cross Section
Medium (>0.1 m² and <1 m²)

Expand to show TLE details & history
Last TLE update: 15 hours ago

TLE from 15 hours ago
0 OPS 4682 DEB
1 38388U 65027CR  26174.80861935  .00000425  00000-0  13739-2 0  9996
2 38388  90.2718  23.2037 0036817 336.4886  23.4552 13.00591340664923
Epoch: 2026-06-23T19:24Z
TLE epoch observation values (Epoch: 2026-06-23T19:24:24.711Z)
Latitude
-0.00004°
Longitude
-179.87413°
Altitude
1,236.87 km
Speed
7.249 km/s
True Right ascension
01h 32m 48s
True Declination
0° 00' 00"
Sunlit
Object was in daylight at epoch
Visualization orbit readout
Latitude
Unknown
Longitude
Unknown
Altitude
Unknown
Speed
Unknown
Apparent Right ascension
Unknown
Apparent Declination
Unknown
Sunlit
N/A
Visualization observer readout
Local Sidereal Time
21:07:33
Azimuth
Unknown
Elevation
Unknown
Doppler factor
Unknown
Orbital elements
Apogee altitude
1,285.007 km
Perigee altitude
1,228.787 km
Semi-major axis
7,635.034 km
Eccentricity
0.00368
Inclination
90.2718°
RAAN
23.2037°
Arg. of periapsis
336.4886°
True anomaly
23.62384°
Mean anomaly
23.4552°
Eccentric anomaly
23.53945°
Mean motion
3.25332 °/min
Orbital period
110.66 mins
BSTAR
0.0013739
Loading maneuver chart data...
Computing Atmospheric mass density...
Loading historical data...
Loading historical data...
Loading historical data...
Loading historical data...
Loading historical data...
Loading historical data...
Loading historical data...

Documentation

Showing up to 5 results
|